MSR1015 OERK-HEAT

Flight info

Callsign MSR1015
Flight time 2h 35m
Altitude 38000
Route IVONU M321 HLF N316 HGD V608 AST
Aircraft B77W/H-SDE1E2E3FGHIJ2J3J4J5M1RWXY/LB1D1

Departure

Time 2026-04-25 11:13
Airport King Khalid International Airport (OERK)

Arrival

Time 2026-04-25 13:48
Airport Asyut International Airport (HEAT)
Time Latitude Longitude Altitude Speed Heading
2026-04-25 10:47 24.96314 46.70170 2080 ft 0 kts 308°
2026-04-25 11:06 24.96310 46.70176 2080 ft 3 kts 317°
2026-04-25 11:06 24.96301 46.70186 2080 ft 2 kts 313°
2026-04-25 11:07 24.96291 46.70197 2080 ft 3 kts 336°
2026-04-25 11:07 24.96283 46.70201 2080 ft 3 kts 14°
2026-04-25 11:07 24.96272 46.70196 2080 ft 3 kts 46°
2026-04-25 11:07 24.96260 46.70179 2080 ft 3 kts 56°
2026-04-25 11:08 24.96251 46.70165 2080 ft 1 kts 60°
2026-04-25 11:08 24.96251 46.70164 2080 ft 0 kts 60°
2026-04-25 11:09 24.97069 46.67506 2081 ft 0 kts 150°
2026-04-25 11:12 24.96977 46.67565 2079 ft 48 kts 150°
2026-04-25 11:12 24.96472 46.67889 2078 ft 119 kts 149°
2026-04-25 11:12 24.95574 46.68467 2077 ft 177 kts 150°
2026-04-25 11:12 24.94419 46.69285 2225 ft 206 kts 145°
2026-04-25 11:13 24.93314 46.70100 3212 ft 178 kts 146°
2026-04-25 11:13 24.92120 46.70588 3563 ft 197 kts 170°
2026-04-25 11:13 24.90725 46.70821 3880 ft 212 kts 167°
2026-04-25 11:13 24.89205 46.71180 4090 ft 235 kts 165°
2026-04-25 11:14 24.87545 46.71645 4250 ft 255 kts 163°
2026-04-25 11:14 24.85798 46.72157 4825 ft 261 kts 165°
2026-04-25 11:14 24.84026 46.72689 5499 ft 266 kts 163°
2026-04-25 11:14 24.82235 46.73240 6269 ft 268 kts 163°
2026-04-25 11:15 24.80432 46.73729 6876 ft 274 kts 169°
2026-04-25 11:15 24.78504 46.74065 7539 ft 278 kts 171°
2026-04-25 11:15 24.76580 46.74364 8232 ft 281 kts 172°
2026-04-25 11:15 24.74624 46.74669 8876 ft 284 kts 171°
2026-04-25 11:16 24.70668 46.75311 10178 ft 290 kts 172°
2026-04-25 11:16 24.68633 46.75649 10535 ft 305 kts 173°
2026-04-25 11:16 24.66480 46.76005 10700 ft 327 kts 173°
2026-04-25 11:17 24.64155 46.76394 10878 ft 349 kts 173°
2026-04-25 11:17 24.61688 46.76700 10997 ft 363 kts 183°
2026-04-25 11:17 24.59212 46.76085 11439 ft 371 kts 206°
2026-04-25 11:17 24.57074 46.74476 12149 ft 373 kts 225°
2026-04-25 11:18 24.55557 46.72240 13028 ft 372 kts 241°
2026-04-25 11:18 24.54366 46.69745 13814 ft 374 kts 242°
2026-04-25 11:18 24.53129 46.67172 14657 ft 376 kts 241°
2026-04-25 11:18 24.51880 46.64636 15464 ft 378 kts 241°
2026-04-25 11:19 24.50633 46.62133 16223 ft 381 kts 240°
2026-04-25 11:19 24.49355 46.59571 17010 ft 380 kts 242°
2026-04-25 11:19 24.48503 46.56814 17550 ft 388 kts 260°
2026-04-25 11:19 24.48522 46.53830 18224 ft 397 kts 276°
2026-04-25 11:20 24.49221 46.50866 18931 ft 405 kts 288°
2026-04-25 11:20 24.50633 46.48152 19524 ft 414 kts 301°
2026-04-25 11:20 24.52384 46.45611 19989 ft 422 kts 303°
2026-04-25 11:20 24.54216 46.43046 20582 ft 426 kts 303°
2026-04-25 11:21 24.56027 46.40507 21165 ft 429 kts 303°
2026-04-25 11:21 24.57879 46.37874 21777 ft 432 kts 303°
2026-04-25 11:21 24.59683 46.35269 22276 ft 436 kts 303°
2026-04-25 11:21 24.61517 46.32593 22779 ft 440 kts 302°
2026-04-25 11:22 24.63357 46.29894 23307 ft 443 kts 302°
2026-04-25 11:22 24.64605 46.28059 23652 ft 445 kts 302°
2026-04-25 11:22 24.67071 46.24435 24301 ft 449 kts 302°
2026-04-25 11:22 24.68954 46.21667 24769 ft 452 kts 302°
2026-04-25 11:23 24.70842 46.18892 25219 ft 455 kts 302°
2026-04-25 11:23 24.72743 46.16095 25675 ft 458 kts 302°
2026-04-25 11:23 24.74661 46.13274 26141 ft 460 kts 302°
2026-04-25 11:23 24.76581 46.10445 26588 ft 462 kts 302°
2026-04-25 11:24 24.78498 46.07620 27012 ft 465 kts 302°
2026-04-25 11:24 24.80444 46.04751 27406 ft 468 kts 302°
2026-04-25 11:24 24.82404 46.01858 27772 ft 471 kts 301°
2026-04-25 11:24 24.84341 45.98999 28147 ft 473 kts 301°
2026-04-25 11:25 24.86312 45.96086 28504 ft 475 kts 301°
2026-04-25 11:25 24.88303 45.93145 28853 ft 478 kts 301°
2026-04-25 11:25 24.90293 45.90201 29169 ft 480 kts 301°
2026-04-25 11:25 24.92305 45.87223 29467 ft 483 kts 301°
2026-04-25 11:26 24.94315 45.84246 29768 ft 485 kts 301°
2026-04-25 11:26 24.96313 45.81286 30022 ft 488 kts 301°
2026-04-25 11:26 24.98341 45.78279 30292 ft 489 kts 301°
2026-04-25 11:26 25.00377 45.75261 30669 ft 488 kts 301°
2026-04-25 11:27 25.02381 45.72288 31170 ft 483 kts 301°
2026-04-25 11:27 25.04370 45.69300 31688 ft 475 kts 297°
2026-04-25 11:27 25.05877 45.66122 32132 ft 461 kts 284°
2026-04-25 11:27 25.06401 45.63891 32395 ft 449 kts 275°
2026-04-25 11:28 25.07056 45.59389 32758 ft 449 kts 275°
2026-04-25 11:28 25.07586 45.55997 33119 ft 447 kts 276°
2026-04-25 11:28 25.08137 45.52632 33567 ft 443 kts 276°
2026-04-25 11:28 25.08695 45.49313 34059 ft 438 kts 276°
2026-04-25 11:29 25.09252 45.46023 34501 ft 434 kts 277°
2026-04-25 11:29 25.09807 45.42763 34876 ft 431 kts 277°
2026-04-25 11:29 25.10357 45.39518 35191 ft 429 kts 277°
2026-04-25 11:29 25.10903 45.36292 35473 ft 427 kts 277°
2026-04-25 11:30 25.11446 45.33077 35804 ft 424 kts 277°
2026-04-25 11:30 25.11974 45.29948 36367 ft 415 kts 277°
2026-04-25 11:30 25.12495 45.26857 36990 ft 406 kts 277°
2026-04-25 11:30 25.13008 45.23810 37378 ft 402 kts 278°
2026-04-25 11:31 25.13515 45.20785 37603 ft 401 kts 278°
2026-04-25 11:31 25.14024 45.17749 37659 ft 403 kts 278°
2026-04-25 11:31 25.15044 45.11629 37750 ft 407 kts 278°
2026-04-25 11:32 25.15557 45.08550 37852 ft 407 kts 278°
2026-04-25 11:32 25.15896 45.06517 37903 ft 408 kts 278°
2026-04-25 11:32 25.16923 45.00340 37996 ft 409 kts 278°
2026-04-25 11:33 25.17951 44.94156 37996 ft 409 kts 278°
2026-04-25 11:33 25.18971 44.87999 38004 ft 408 kts 278°
2026-04-25 11:34 25.19991 44.81821 38002 ft 407 kts 278°
2026-04-25 11:34 25.20996 44.75717 37999 ft 407 kts 278°
2026-04-25 11:35 25.22005 44.69569 37997 ft 406 kts 278°
2026-04-25 11:35 25.23012 44.63433 37998 ft 406 kts 278°
2026-04-25 11:36 25.24012 44.57298 38001 ft 405 kts 278°
2026-04-25 11:36 25.25012 44.51162 38002 ft 405 kts 278°
2026-04-25 11:37 25.26086 44.45094 37997 ft 405 kts 279°
2026-04-25 11:37 25.27265 44.39012 38001 ft 405 kts 279°
2026-04-25 11:38 25.28441 44.32918 37998 ft 404 kts 279°
2026-04-25 11:38 25.29603 44.26820 38005 ft 405 kts 279°
2026-04-25 11:39 25.30755 44.20731 38004 ft 405 kts 279°
2026-04-25 11:39 25.31894 44.14680 37998 ft 405 kts 279°
2026-04-25 11:40 25.33040 44.08579 38001 ft 405 kts 278°
2026-04-25 11:40 25.34186 44.02463 37989 ft 405 kts 278°
2026-04-25 11:41 25.35329 43.96360 37988 ft 405 kts 278°
2026-04-25 11:41 25.36467 43.90253 37992 ft 405 kts 278°
2026-04-25 11:42 25.37597 43.84189 37988 ft 405 kts 278°
2026-04-25 11:42 25.38731 43.78081 37992 ft 405 kts 278°
2026-04-25 11:43 25.39863 43.71973 37990 ft 405 kts 278°
2026-04-25 11:43 25.40991 43.65874 37982 ft 402 kts 278°
2026-04-25 11:44 25.42101 43.59862 37985 ft 396 kts 278°
2026-04-25 11:44 25.43195 43.53911 37991 ft 395 kts 278°
2026-04-25 11:45 25.44288 43.47939 37996 ft 397 kts 278°
2026-04-25 11:45 25.45378 43.41989 37996 ft 398 kts 278°
2026-04-25 11:46 25.46482 43.35943 37991 ft 398 kts 278°
2026-04-25 11:46 25.47568 43.29982 37992 ft 398 kts 278°
2026-04-25 11:47 25.48664 43.23949 37990 ft 398 kts 278°
2026-04-25 11:47 25.49753 43.17942 37994 ft 400 kts 278°
2026-04-25 11:48 25.50849 43.11883 37998 ft 403 kts 278°
2026-04-25 11:48 25.51953 43.05766 37996 ft 406 kts 278°
2026-04-25 11:49 25.53058 42.99626 37993 ft 407 kts 278°
2026-04-25 11:49 25.54172 42.93470 37993 ft 408 kts 278°
2026-04-25 11:50 25.55279 42.87347 37986 ft 408 kts 278°
2026-04-25 11:50 25.56388 42.81195 37994 ft 407 kts 278°
2026-04-25 11:51 25.57493 42.75059 37991 ft 405 kts 278°
2026-04-25 11:51 25.58591 42.68944 37993 ft 404 kts 278°
2026-04-25 11:52 25.59682 42.62838 37988 ft 402 kts 278°
2026-04-25 11:52 25.60763 42.56777 37988 ft 401 kts 278°
2026-04-25 11:53 25.61834 42.50758 37990 ft 400 kts 278°
2026-04-25 11:53 25.62905 42.44724 37986 ft 399 kts 278°
2026-04-25 11:54 25.63974 42.38687 37993 ft 398 kts 278°
2026-04-25 11:55 25.65571 42.29647 37992 ft 398 kts 278°
2026-04-25 11:55 25.66772 42.23652 37988 ft 400 kts 282°
2026-04-25 11:56 25.68369 42.17745 38000 ft 400 kts 283°
2026-04-25 11:56 25.69976 42.11842 37995 ft 400 kts 283°
2026-04-25 11:57 25.71565 42.05969 37985 ft 400 kts 283°
2026-04-25 11:57 25.73161 42.00037 37983 ft 401 kts 283°
2026-04-25 11:58 25.74752 41.94102 37980 ft 401 kts 282°
2026-04-25 11:58 25.76332 41.88200 37981 ft 401 kts 283°
2026-04-25 11:59 25.77913 41.82281 37985 ft 401 kts 282°
2026-04-25 11:59 25.79500 41.76327 37980 ft 401 kts 282°
2026-04-25 12:00 25.81872 41.67418 37981 ft 401 kts 282°
2026-04-25 12:01 25.84227 41.58541 37979 ft 401 kts 282°
2026-04-25 12:01 25.85800 41.52605 37960 ft 401 kts 282°
2026-04-25 12:02 25.88152 41.43704 37970 ft 400 kts 282°
2026-04-25 12:02 25.89720 41.37755 37973 ft 400 kts 282°
2026-04-25 12:03 25.91279 41.31830 37975 ft 400 kts 282°
2026-04-25 12:03 25.92839 41.25887 37955 ft 400 kts 282°
2026-04-25 12:04 25.94396 41.19948 37946 ft 400 kts 282°
2026-04-25 12:04 25.95949 41.14012 37945 ft 400 kts 282°
2026-04-25 12:05 25.97489 41.08117 37939 ft 400 kts 282°
2026-04-25 12:05 25.99041 41.02164 37939 ft 401 kts 282°
2026-04-25 12:06 26.00591 40.96213 37941 ft 401 kts 282°
2026-04-25 12:06 26.02143 40.90231 37951 ft 402 kts 282°
2026-04-25 12:07 26.03693 40.84254 37942 ft 402 kts 282°
2026-04-25 12:07 26.05243 40.78268 37945 ft 402 kts 282°
2026-04-25 12:08 26.06780 40.72321 37936 ft 403 kts 282°
2026-04-25 12:08 26.08321 40.66328 37938 ft 403 kts 282°
2026-04-25 12:09 26.09862 40.60326 37934 ft 403 kts 282°
2026-04-25 12:09 26.11402 40.54316 37936 ft 404 kts 282°
2026-04-25 12:10 26.12941 40.48298 37932 ft 404 kts 282°
2026-04-25 12:10 26.14467 40.42316 37939 ft 405 kts 282°
2026-04-25 12:11 26.16010 40.36265 37934 ft 405 kts 282°
2026-04-25 12:11 26.17546 40.30232 37945 ft 406 kts 282°
2026-04-25 12:12 26.18825 40.25200 37939 ft 406 kts 282°
2026-04-25 12:12 26.20617 40.18131 37928 ft 406 kts 282°
2026-04-25 12:13 26.22149 40.12080 37937 ft 406 kts 282°
2026-04-25 12:13 26.23671 40.06057 37933 ft 406 kts 282°
2026-04-25 12:14 26.25201 39.99994 37940 ft 406 kts 282°
2026-04-25 12:14 26.26725 39.93939 37926 ft 406 kts 282°
2026-04-25 12:15 26.28237 39.87918 37924 ft 406 kts 282°
2026-04-25 12:15 26.29769 39.81816 37932 ft 405 kts 282°
2026-04-25 12:16 26.31280 39.75772 37933 ft 405 kts 282°
2026-04-25 12:16 26.32783 39.69753 37926 ft 405 kts 282°
2026-04-25 12:17 26.34290 39.63716 37918 ft 404 kts 282°
2026-04-25 12:17 26.35791 39.57677 37913 ft 404 kts 282°
2026-04-25 12:18 26.37036 39.52662 37906 ft 403 kts 282°
2026-04-25 12:18 26.38528 39.46639 37906 ft 402 kts 282°
2026-04-25 12:19 26.40997 39.36653 37905 ft 401 kts 282°
2026-04-25 12:20 26.42235 39.31637 37909 ft 400 kts 282°
2026-04-25 12:20 26.43706 39.25690 37906 ft 399 kts 282°
2026-04-25 12:21 26.45269 39.19760 37907 ft 398 kts 282°
2026-04-25 12:21 26.46861 39.13831 37912 ft 398 kts 282°
2026-04-25 12:22 26.48438 39.07918 37907 ft 397 kts 282°
2026-04-25 12:22 26.50004 39.02013 37913 ft 397 kts 282°
2026-04-25 12:23 26.51568 38.96093 37916 ft 396 kts 282°
2026-04-25 12:23 26.53110 38.90235 37915 ft 395 kts 282°
2026-04-25 12:24 26.54662 38.84339 37915 ft 395 kts 282°
2026-04-25 12:24 26.56195 38.78498 37919 ft 394 kts 282°
2026-04-25 12:25 26.57744 38.72588 37919 ft 394 kts 282°
2026-04-25 12:25 26.59278 38.66724 37921 ft 393 kts 282°
2026-04-25 12:26 26.60800 38.60894 37913 ft 393 kts 282°
2026-04-25 12:26 26.62331 38.55023 37916 ft 393 kts 282°
2026-04-25 12:27 26.63855 38.49159 37914 ft 392 kts 282°
2026-04-25 12:27 26.65379 38.43295 37919 ft 392 kts 282°
2026-04-25 12:28 26.66895 38.37442 37919 ft 392 kts 282°
2026-04-25 12:28 26.68408 38.31596 37917 ft 392 kts 282°
2026-04-25 12:29 26.69910 38.25780 37917 ft 392 kts 282°
2026-04-25 12:29 26.71418 38.19932 37912 ft 391 kts 282°
2026-04-25 12:30 26.72916 38.14112 37919 ft 391 kts 282°
2026-04-25 12:30 26.74415 38.08273 37919 ft 391 kts 282°
2026-04-25 12:31 26.75917 38.02410 37905 ft 391 kts 282°
2026-04-25 12:31 26.77417 37.96547 37913 ft 391 kts 282°
2026-04-25 12:32 26.78902 37.90737 37903 ft 390 kts 282°
2026-04-25 12:32 26.80386 37.84911 37906 ft 389 kts 282°
2026-04-25 12:33 26.81867 37.79090 37899 ft 388 kts 282°
2026-04-25 12:33 26.83347 37.73266 37910 ft 387 kts 282°
2026-04-25 12:34 26.84818 37.67463 37902 ft 386 kts 282°
2026-04-25 12:34 26.86283 37.61673 37908 ft 386 kts 282°
2026-04-25 12:35 26.87737 37.55913 37908 ft 387 kts 282°
2026-04-25 12:35 26.89200 37.50109 37908 ft 387 kts 282°
2026-04-25 12:36 26.90660 37.44301 37896 ft 388 kts 282°
2026-04-25 12:36 26.92124 37.38476 37902 ft 388 kts 282°
2026-04-25 12:37 26.93583 37.32650 37892 ft 388 kts 281°
2026-04-25 12:37 26.95032 37.26862 37897 ft 388 kts 281°
2026-04-25 12:38 26.96487 37.21036 37897 ft 387 kts 281°
2026-04-25 12:38 26.97937 37.15217 37892 ft 387 kts 281°
2026-04-25 12:39 26.99382 37.09409 37890 ft 386 kts 281°
2026-04-25 12:39 27.00822 37.03611 37890 ft 386 kts 281°
2026-04-25 12:40 27.02258 36.97811 37886 ft 386 kts 282°
2026-04-25 12:40 27.03697 36.91994 37887 ft 388 kts 281°
2026-04-25 12:41 27.05137 36.86161 37897 ft 388 kts 281°
2026-04-25 12:41 27.06564 36.80367 37887 ft 387 kts 281°
2026-04-25 12:42 27.07992 36.74558 37881 ft 386 kts 281°
2026-04-25 12:42 27.09414 36.68771 37882 ft 384 kts 281°
2026-04-25 12:43 27.10831 36.62982 37891 ft 384 kts 281°
2026-04-25 12:43 27.12948 36.54316 37880 ft 383 kts 281°
2026-04-25 12:44 27.14354 36.48551 37884 ft 383 kts 281°
2026-04-25 12:45 27.16462 36.39888 37868 ft 383 kts 281°
2026-04-25 12:45 27.18558 36.31242 37862 ft 384 kts 281°
2026-04-25 12:46 27.19955 36.25465 37878 ft 384 kts 281°
2026-04-25 12:46 27.21356 36.19661 37868 ft 385 kts 281°
2026-04-25 12:47 27.22753 36.13866 37888 ft 384 kts 281°
2026-04-25 12:47 27.24149 36.08064 37886 ft 384 kts 281°
2026-04-25 12:48 27.25536 36.02293 37881 ft 384 kts 281°
2026-04-25 12:48 27.26924 35.96491 37887 ft 385 kts 281°
2026-04-25 12:49 27.28316 35.90672 37888 ft 385 kts 281°
2026-04-25 12:49 27.29703 35.84852 37877 ft 385 kts 281°
2026-04-25 12:50 27.31088 35.79037 37866 ft 385 kts 281°
2026-04-25 12:50 27.32465 35.73244 37872 ft 385 kts 281°
2026-04-25 12:51 27.33844 35.67432 37868 ft 384 kts 281°
2026-04-25 12:51 27.35217 35.61630 37867 ft 383 kts 281°
2026-04-25 12:52 27.36587 35.55836 37876 ft 383 kts 281°
2026-04-25 12:52 27.37952 35.50046 37867 ft 382 kts 281°
2026-04-25 12:53 27.39313 35.44258 37867 ft 382 kts 280°
2026-04-25 12:53 27.40672 35.38469 37879 ft 382 kts 280°
2026-04-25 12:54 27.42022 35.32716 37865 ft 382 kts 280°
2026-04-25 12:54 27.43376 35.26927 37862 ft 382 kts 280°
2026-04-25 12:55 27.44498 35.22116 37879 ft 382 kts 280°
2026-04-25 12:55 27.46074 35.15349 37881 ft 382 kts 280°
2026-04-25 12:56 27.47422 35.09548 37860 ft 383 kts 280°
2026-04-25 12:56 27.48769 35.03747 37867 ft 383 kts 280°
2026-04-25 12:57 27.50067 34.97970 37858 ft 380 kts 276°
2026-04-25 12:57 27.50215 34.92029 37863 ft 377 kts 266°
2026-04-25 12:58 27.49452 34.86234 37858 ft 378 kts 255°
2026-04-25 12:58 27.47769 34.80612 37865 ft 379 kts 254°
2026-04-25 12:59 27.46071 34.74977 37862 ft 380 kts 254°
2026-04-25 12:59 27.44403 34.69329 37860 ft 380 kts 254°
2026-04-25 13:00 27.43849 34.67446 37864 ft 380 kts 254°
2026-04-25 13:00 27.41088 34.58053 37866 ft 380 kts 254°
2026-04-25 13:01 27.39426 34.52393 37860 ft 380 kts 254°
2026-04-25 13:01 27.37764 34.46741 37864 ft 380 kts 254°
2026-04-25 13:02 27.36107 34.41124 37863 ft 380 kts 254°
2026-04-25 13:02 27.34441 34.35482 37861 ft 380 kts 254°
2026-04-25 13:03 27.32770 34.29829 37853 ft 380 kts 254°
2026-04-25 13:03 27.31102 34.24196 37853 ft 380 kts 254°
2026-04-25 13:04 27.29432 34.18565 37851 ft 379 kts 254°
2026-04-25 13:04 27.27760 34.12937 37850 ft 379 kts 254°
2026-04-25 13:05 27.26098 34.07351 37852 ft 379 kts 254°
2026-04-25 13:05 27.24425 34.01739 37851 ft 379 kts 254°
2026-04-25 13:06 27.22750 33.96132 37852 ft 378 kts 254°
2026-04-25 13:06 27.21360 33.91481 37857 ft 378 kts 254°
2026-04-25 13:07 27.19683 33.85879 37855 ft 377 kts 254°
2026-04-25 13:07 27.18645 33.80145 37863 ft 374 kts 263°
2026-04-25 13:08 27.18260 33.74311 37861 ft 374 kts 269°
2026-04-25 13:08 27.18684 33.68475 37863 ft 375 kts 273°
2026-04-25 13:09 27.19217 33.62642 37858 ft 375 kts 273°
2026-04-25 13:09 27.19725 33.56804 37861 ft 376 kts 273°
2026-04-25 13:10 27.20220 33.50949 37854 ft 376 kts 273°
2026-04-25 13:10 27.20704 33.45133 37855 ft 377 kts 272°
2026-04-25 13:11 27.21194 33.39230 37856 ft 377 kts 272°
2026-04-25 13:11 27.21676 33.33402 37847 ft 377 kts 272°
2026-04-25 13:12 27.22159 33.27562 37858 ft 373 kts 273°
2026-04-25 13:12 27.22560 33.22722 37841 ft 374 kts 272°
2026-04-25 13:13 27.23118 33.15917 37843 ft 374 kts 272°
2026-04-25 13:13 27.23593 33.10087 37851 ft 375 kts 272°
2026-04-25 13:14 27.24067 33.04240 37851 ft 375 kts 272°
2026-04-25 13:14 27.24541 32.98390 37848 ft 376 kts 272°
2026-04-25 13:15 27.25009 32.92568 37839 ft 376 kts 272°
2026-04-25 13:15 27.25479 32.86713 37842 ft 375 kts 272°
2026-04-25 13:16 27.25943 32.80880 37843 ft 374 kts 272°
2026-04-25 13:16 27.26402 32.75090 37841 ft 374 kts 272°
2026-04-25 13:17 27.26859 32.69267 37842 ft 373 kts 272°
2026-04-25 13:17 27.27312 32.63469 37843 ft 372 kts 272°
2026-04-25 13:18 27.27764 32.57675 37838 ft 371 kts 272°
2026-04-25 13:18 27.28213 32.51891 37837 ft 371 kts 272°
2026-04-25 13:19 27.28655 32.46143 37831 ft 372 kts 272°
2026-04-25 13:19 27.29028 32.41286 37835 ft 372 kts 272°
2026-04-25 13:20 27.29541 32.34560 37846 ft 371 kts 272°
2026-04-25 13:20 27.29490 32.28816 37653 ft 362 kts 265°
2026-04-25 13:21 27.29264 32.26028 37232 ft 362 kts 263°
2026-04-25 13:21 27.28904 32.23225 36735 ft 365 kts 259°
2026-04-25 13:21 27.28351 32.20428 36095 ft 369 kts 258°
2026-04-25 13:21 27.27749 32.17582 35170 ft 380 kts 257°
2026-04-25 13:22 27.27120 32.14663 34322 ft 386 kts 257°
2026-04-25 13:22 27.26490 32.11735 33752 ft 383 kts 257°
2026-04-25 13:22 27.25871 32.08855 33385 ft 376 kts 257°
2026-04-25 13:23 27.24665 32.03259 32716 ft 362 kts 255°
2026-04-25 13:23 27.23781 32.00624 32198 ft 362 kts 246°
2026-04-25 13:23 27.22592 31.98116 31560 ft 365 kts 243°
2026-04-25 13:23 27.21272 31.95678 30941 ft 367 kts 240°
2026-04-25 13:24 27.19733 31.93366 30323 ft 371 kts 233°
2026-04-25 13:24 27.18030 31.91174 29769 ft 371 kts 232°
2026-04-25 13:24 27.16327 31.89039 29226 ft 371 kts 232°
2026-04-25 13:24 27.14604 31.86889 28708 ft 370 kts 232°
2026-04-25 13:25 27.12887 31.84742 28232 ft 368 kts 231°
2026-04-25 13:25 27.11189 31.82610 27771 ft 365 kts 232°
2026-04-25 13:25 27.09501 31.80481 27271 ft 364 kts 232°
2026-04-25 13:25 27.07820 31.78358 26777 ft 363 kts 231°
2026-04-25 13:26 27.06148 31.76244 26286 ft 361 kts 231°
2026-04-25 13:26 27.04482 31.74137 25782 ft 360 kts 231°
2026-04-25 13:26 27.02822 31.72037 25294 ft 359 kts 231°
2026-04-25 13:26 27.01166 31.69945 24822 ft 358 kts 231°
2026-04-25 13:27 26.99519 31.67864 24380 ft 356 kts 231°
2026-04-25 13:27 26.97875 31.65789 23882 ft 355 kts 230°
2026-04-25 13:27 26.96235 31.63719 23423 ft 354 kts 230°
2026-04-25 13:27 26.94625 31.61686 22985 ft 352 kts 230°
2026-04-25 13:28 26.92980 31.59612 22527 ft 351 kts 230°
2026-04-25 13:28 26.92451 31.58945 22385 ft 350 kts 230°
2026-04-25 13:28 26.89774 31.55571 21670 ft 347 kts 230°
2026-04-25 13:28 26.88132 31.53604 21186 ft 346 kts 224°
2026-04-25 13:29 26.86151 31.52027 20570 ft 354 kts 211°
2026-04-25 13:29 26.83840 31.50974 19898 ft 363 kts 198°
2026-04-25 13:29 26.81336 31.50513 19519 ft 365 kts 187°
2026-04-25 13:30 26.76332 31.50458 18953 ft 354 kts 183°
2026-04-25 13:30 26.73952 31.50123 18395 ft 343 kts 205°
2026-04-25 13:30 26.72003 31.48666 17809 ft 337 kts 231°
2026-04-25 13:31 26.70944 31.43815 16885 ft 332 kts 285°
2026-04-25 13:31 26.71736 31.41400 16412 ft 331 kts 290°
2026-04-25 13:31 26.72566 31.39035 15968 ft 331 kts 290°
2026-04-25 13:31 26.73550 31.36715 15585 ft 330 kts 298°
2026-04-25 13:32 26.74912 31.34664 15184 ft 330 kts 313°
2026-04-25 13:32 26.76769 31.33152 14797 ft 333 kts 330°
2026-04-25 13:32 26.78950 31.32269 14394 ft 336 kts 347°
2026-04-25 13:32 26.81280 31.32165 13906 ft 336 kts 359°
2026-04-25 13:33 26.83626 31.32253 13431 ft 337 kts 359°
2026-04-25 13:33 26.85967 31.32339 13120 ft 333 kts 359°
2026-04-25 13:33 26.88265 31.32408 12769 ft 330 kts 358°
2026-04-25 13:33 26.89784 31.32445 12614 ft 326 kts 358°
2026-04-25 13:34 26.92762 31.32510 12418 ft 314 kts 358°
2026-04-25 13:34 26.94896 31.32553 12278 ft 305 kts 358°
2026-04-25 13:34 26.96981 31.32901 11875 ft 307 kts 17°
2026-04-25 13:34 26.98884 31.34009 11527 ft 310 kts 33°
2026-04-25 13:35 27.00506 31.35597 11243 ft 310 kts 46°
2026-04-25 13:35 27.01786 31.37543 10910 ft 310 kts 59°
2026-04-25 13:35 27.02589 31.39781 10550 ft 311 kts 76°
2026-04-25 13:35 27.02796 31.42187 10191 ft 311 kts 94°
2026-04-25 13:36 27.02373 31.44550 9877 ft 309 kts 111°
2026-04-25 13:36 27.01389 31.46664 9574 ft 305 kts 127°
2026-04-25 13:36 26.99946 31.48393 9216 ft 303 kts 143°
2026-04-25 13:36 26.98185 31.49677 8862 ft 301 kts 153°
2026-04-25 13:37 26.96254 31.50535 8509 ft 298 kts 168°
2026-04-25 13:37 26.94215 31.50704 8163 ft 293 kts 192°
2026-04-25 13:37 26.92359 31.49947 7824 ft 284 kts 212°
2026-04-25 13:37 26.90654 31.48809 7483 ft 283 kts 213°
2026-04-25 13:38 26.89000 31.47684 7404 ft 273 kts 213°
2026-04-25 13:38 26.87395 31.46600 7322 ft 264 kts 213°
2026-04-25 13:38 26.85844 31.45562 7171 ft 256 kts 213°
2026-04-25 13:38 26.84331 31.44548 6984 ft 250 kts 213°
2026-04-25 13:39 26.82839 31.43556 6706 ft 248 kts 212°
2026-04-25 13:39 26.81391 31.42599 6658 ft 235 kts 213°
2026-04-25 13:39 26.80013 31.41685 6464 ft 226 kts 215°
2026-04-25 13:39 26.78947 31.40474 6168 ft 217 kts 247°
2026-04-25 13:40 26.78683 31.38880 5919 ft 208 kts 277°
2026-04-25 13:40 26.79061 31.37350 5646 ft 204 kts 298°
2026-04-25 13:40 26.79838 31.36062 5401 ft 198 kts 307°
2026-04-25 13:40 26.80676 31.34863 5236 ft 195 kts 308°
2026-04-25 13:41 26.81517 31.33673 4949 ft 196 kts 308°
2026-04-25 13:41 26.82360 31.32475 4565 ft 194 kts 308°
2026-04-25 13:41 26.83187 31.31298 4092 ft 192 kts 308°
2026-04-25 13:41 26.84016 31.30109 3558 ft 195 kts 308°
2026-04-25 13:42 26.84855 31.28903 2975 ft 196 kts 308°
2026-04-25 13:42 26.85685 31.27711 2669 ft 195 kts 308°
2026-04-25 13:42 26.86534 31.26492 2559 ft 199 kts 307°
2026-04-25 13:42 26.87369 31.25283 2512 ft 193 kts 307°
2026-04-25 13:43 26.88170 31.24117 2511 ft 186 kts 307°
2026-04-25 13:43 26.88961 31.22963 2511 ft 188 kts 307°
2026-04-25 13:43 26.89753 31.21817 2522 ft 186 kts 307°
2026-04-25 13:43 26.90516 31.20648 2512 ft 185 kts 302°
2026-04-25 13:44 26.91200 31.19459 2534 ft 185 kts 304°
2026-04-25 13:44 26.91968 31.18268 2534 ft 190 kts 307°
2026-04-25 13:44 26.92790 31.17117 2513 ft 188 kts 309°
2026-04-25 13:44 26.93620 31.15992 2525 ft 185 kts 309°
2026-04-25 13:45 26.94441 31.14894 2531 ft 182 kts 309°
2026-04-25 13:45 26.95254 31.13801 2523 ft 182 kts 309°
2026-04-25 13:45 26.96068 31.12709 2552 ft 184 kts 309°
2026-04-25 13:45 26.96898 31.11597 2561 ft 189 kts 309°
2026-04-25 13:46 26.97746 31.10457 2554 ft 191 kts 309°
2026-04-25 13:46 26.98606 31.09305 2352 ft 194 kts 309°
2026-04-25 13:46 26.99432 31.08194 2079 ft 182 kts 309°
2026-04-25 13:46 27.00214 31.07150 1870 ft 170 kts 308°
2026-04-25 13:47 27.00963 31.06142 1672 ft 167 kts 308°
2026-04-25 13:47 27.01715 31.05132 1445 ft 170 kts 308°
2026-04-25 13:47 27.02474 31.04114 1209 ft 170 kts 309°
2026-04-25 13:47 27.03231 31.03099 995 ft 169 kts 309°
2026-04-25 13:48 27.03986 31.02083 798 ft 169 kts 309°
2026-04-25 13:48 27.04685 31.01142 770 ft 144 kts 309°
2026-04-25 13:48 27.05206 31.00443 753 ft 55 kts 310°
2026-04-25 13:48 27.05367 31.00226 750 ft 18 kts 310°
2026-04-25 13:49 27.05421 31.00155 749 ft 17 kts 310°
2026-04-25 13:49 27.05514 31.00071 747 ft 18 kts 352°
2026-04-25 13:49 27.05621 31.00135 751 ft 18 kts 39°
2026-04-25 13:49 27.05639 31.00259 750 ft 18 kts 122°
2026-04-25 13:50 27.05557 31.00363 754 ft 18 kts 133°
2026-04-25 13:50 27.05475 31.00468 755 ft 18 kts 131°
2026-04-25 13:50 27.05393 31.00573 756 ft 18 kts 131°
2026-04-25 13:50 27.05313 31.00677 754 ft 18 kts 131°
2026-04-25 13:51 27.05232 31.00782 755 ft 18 kts 131°
2026-04-25 13:51 27.05153 31.00889 755 ft 18 kts 124°
2026-04-25 13:51 27.05148 31.01009 761 ft 17 kts 50°
2026-04-25 13:51 27.05211 31.01064 760 ft 9 kts 44°
2026-04-25 13:52 27.05220 31.01114 763 ft 6 kts 117°
2026-04-25 13:52 27.05213 31.01122 763 ft 0 kts 129°
2026-04-25 13:53 27.05210 31.01127 763 ft 2 kts 128°
2026-04-25 13:53 27.05201 31.01145 758 ft 3 kts 110°
2026-04-25 13:53 27.05203 31.01170 764 ft 3 kts 73°
2026-04-25 13:53 27.05218 31.01187 764 ft 1 kts 41°
2026-04-25 13:54 27.05222 31.01191 764 ft 0 kts 41°